| time (UTC) | temp C | wind direction | speed KPH | gust KPH | rain 1hr cm | rain 24hr cm | rain mn cm | humidity % | barometer mb |
| 20260510104528 | 18 | 63 | 0.0 | 3.2 | 0.03 | 7.49 | 0.03 | 97 | 1014.1 |
| 20260510104005 | 18 | 63 | 0.0 | 3.2 | 0.03 | 7.49 | 0.03 | 97 | 1014.0 |
| 20260510103505 | 18 | 63 | 0.0 | 3.2 | 0.03 | 7.49 | 0.03 | 97 | 1014.0 |
| 20260510103019 | 18 | 63 | 0.0 | 3.2 | 0.03 | 7.49 | 0.03 | 97 | 1013.9 |
| 20260510102512 | 18 | 62 | 0.0 | 3.2 | 0.00 | 7.47 | 0.00 | 97 | 1014.0 |
| 20260510102010 | 18 | 62 | 0.0 | 3.2 | 0.00 | 7.47 | 0.00 | 97 | 1014.0 |
| 20260510101518 | 18 | 63 | 0.0 | 4.8 | 0.00 | 7.47 | 0.00 | 97 | 1013.9 |
| 20260510101008 | 18 | 63 | 1.6 | 4.8 | 0.00 | 7.47 | 0.00 | 97 | 1013.7 |
| 20260510100508 | 18 | 63 | 1.6 | 4.8 | 0.00 | 7.47 | 0.00 | 97 | 1013.7 |
| 20260510100025 | 18 | 63 | 0.0 | 4.8 | 0.00 | 7.47 | 0.00 | 97 | 1013.7 |
| 20260510095507 | 18 | 63 | 0.0 | 4.8 | 0.00 | 7.47 | 0.00 | 97 | 1013.7 |
| 20260510095010 | 18 | 63 | 1.6 | 4.8 | 0.00 | 7.47 | 0.00 | 97 | 1013.6 |
| 20260510094524 | 18 | 63 | 1.6 | 4.8 | 0.00 | 7.47 | 0.00 | 97 | 1013.6 |
| 20260510094008 | 18 | 63 | 0.0 | 3.2 | 0.00 | 7.47 | 0.00 | 97 | 1013.5 |
| 20260510093511 | 18 | 63 | 0.0 | 1.6 | 0.00 | 7.47 | 0.00 | 97 | 1013.5 |
| 20260510093052 | 18 | 63 | 0.0 | 3.2 | 0.00 | 7.47 | 0.00 | 97 | 1013.4 |
| 20260510092507 | 18 | 63 | 0.0 | 3.2 | 0.00 | 7.47 | 0.00 | 97 | 1013.3 |
| 20260510092009 | 18 | 63 | 0.0 | 3.2 | 0.00 | 7.47 | 0.00 | 97 | 1013.4 |
| 20260510091516 | 18 | 63 | 0.0 | 4.8 | 0.00 | 7.47 | 0.00 | 97 | 1013.3 |
| 20260510091007 | 18 | 63 | 1.6 | 4.8 | 0.00 | 7.47 | 0.00 | 97 | 1013.5 |
| 20260510090508 | 18 | 63 | 1.6 | 3.2 | 0.00 | 7.47 | 0.00 | 97 | 1013.6 |
| 20260510090037 | 18 | 63 | 0.0 | 3.2 | 0.00 | 7.47 | 0.00 | 97 | 1013.6 |
| 20260510085508 | 18 | 63 | 0.0 | 3.2 | 0.00 | 7.47 | 0.00 | 97 | 1013.6 |
| 20260510085011 | 18 | 63 | 0.0 | 3.2 | 0.00 | 7.47 | 0.00 | 97 | 1013.6 |
| 20260510084529 | 18 | 63 | 0.0 | 4.8 | 0.00 | 7.47 | 0.00 | 97 | 1013.5 |
| 20260510084009 | 18 | 63 | 1.6 | 4.8 | 0.00 | 7.47 | 0.00 | 97 | 1013.5 |
| 20260510083507 | 18 | 360 | 1.6 | 4.8 | 0.00 | 7.47 | 0.00 | 97 | 1013.5 |
| 20260510083029 | 18 | 360 | 0.0 | 1.6 | 0.00 | 7.47 | 0.00 | 97 | 1013.6 |
| 20260510082511 | 18 | 360 | 0.0 | 3.2 | 0.00 | 7.47 | 0.00 | 97 | 1013.6 |
| 20260510082015 | 18 | 360 | 0.0 | 3.2 | 0.00 | 7.47 | 0.00 | 97 | 1013.5 |
| 20260510081528 | 18 | 360 | 0.0 | 3.2 | 0.00 | 7.47 | 0.00 | 97 | 1013.4 |
| 20260510081007 | 18 | 360 | 0.0 | 4.8 | 0.00 | 7.47 | 0.00 | 97 | 1013.4 |
| 20260510080507 | 18 | 360 | 1.6 | 4.8 | 0.00 | 7.47 | 0.00 | 97 | 1013.4 |
| 20260510080020 | 18 | 360 | 0.0 | 1.6 | 0.00 | 7.47 | 0.00 | 97 | 1013.4 |
| 20260510075507 | 18 | 360 | 0.0 | 1.6 | 0.00 | 7.47 | 0.00 | 97 | 1013.4 |
| 20260510075016 | 18 | 360 | 0.0 | 3.2 | 0.00 | 7.47 | 0.00 | 97 | 1013.4 |
| 20260510074524 | 19 | 360 | 0.0 | 3.2 | 0.00 | 7.47 | 0.00 | 97 | 1013.4 |
| 20260510074008 | 19 | 360 | 0.0 | 4.8 | 0.00 | 7.47 | 0.00 | 97 | 1013.5 |
| 20260510073509 | 19 | 360 | 0.0 | 4.8 | 0.00 | 7.49 | 0.00 | 97 | 1013.5 |
| 20260510073027 | 19 | 360 | 0.0 | 3.2 | 0.00 | 7.65 | 0.00 | 97 | 1013.4 |
| 20260510072507 | 19 | 360 | 0.0 | 3.2 | 0.00 | 8.05 | 0.00 | 97 | 1013.4 |
| 20260510072014 | 19 | 10 | 1.6 | 3.2 | 0.00 | 8.76 | 0.00 | 97 | 1013.4 |
| 20260510071529 | 19 | 10 | 0.0 | 3.2 | 0.00 | 8.89 | 0.00 | 97 | 1013.3 |
| 20260510071011 | 19 | 10 | 0.0 | 3.2 | 0.00 | 8.89 | 0.00 | 97 | 1013.3 |
| 20260510070508 | 19 | 10 | 1.6 | 3.2 | 0.00 | 8.94 | 0.00 | 97 | 1013.3 |
| 20260510070032 | 19 | 50 | 0.0 | 4.8 | 0.00 | 8.97 | 0.00 | 97 | 1013.3 |
| 20260510065514 | 19 | 50 | 0.0 | 4.8 | 0.00 | 9.07 | 0.00 | 97 | 1013.3 |
| 20260510065010 | 19 | 17 | 0.0 | 4.8 | 0.00 | 9.07 | 0.00 | 97 | 1013.4 |
| 20260510064522 | 19 | 16 | 0.0 | 3.2 | 0.00 | 9.07 | 0.00 | 97 | 1013.4 |
| 20260510064003 | 19 | 16 | 1.6 | 4.8 | 0.00 | 9.07 | 0.00 | 97 | 1013.3 |
| 20260510063505 | 19 | 16 | 0.0 | 4.8 | 0.00 | 9.07 | 0.00 | 97 | 1013.3 |
| 20260510063004 | 19 | 39 | 1.6 | 4.8 | 0.00 | 9.07 | 0.00 | 97 | 1013.3 |
| 20260510062506 | 19 | 92 | 1.6 | 4.8 | 0.00 | 9.07 | 0.00 | 97 | 1013.3 |
| 20260510062005 | 19 | 81 | 1.6 | 4.8 | 0.00 | 9.07 | 0.00 | 97 | 1013.3 |
| 20260510061508 | 19 | 81 | 1.6 | 4.8 | 0.00 | 9.07 | 0.00 | 97 | 1013.3 |
| 20260510061005 | 19 | 81 | 0.0 | 3.2 | 0.00 | 9.07 | 0.00 | 97 | 1013.4 |
| 20260510060505 | 19 | 81 | 0.0 | 6.4 | 0.00 | 9.07 | 0.00 | 97 | 1013.4 |
| 20260510060013 | 19 | 81 | 0.0 | 6.4 | 0.00 | 9.07 | 0.00 | 97 | 1013.4 |
| 20260510055510 | 19 | 92 | 1.6 | 4.8 | 0.00 | 9.07 | 0.00 | 97 | 1013.3 |
| 20260510055007 | 19 | 73 | 1.6 | 4.8 | 0.00 | 9.07 | 0.00 | 97 | 1013.3 |
| 20260510054522 | 19 | 83 | 1.6 | 8.0 | 0.00 | 9.07 | 0.00 | 97 | 1013.2 |
| 20260510054012 | 19 | 83 | 1.6 | 8.0 | 0.00 | 9.07 | 0.00 | 97 | 1013.5 |
| 20260510053512 | 19 | 60 | 3.2 | 8.0 | 0.00 | 9.09 | 0.00 | 97 | 1013.5 |
| 20260510053025 | 19 | 65 | 1.6 | 6.4 | 0.00 | 9.12 | 0.00 | 97 | 1013.5 |
| 20260510052503 | 19 | 97 | 0.0 | 6.4 | 0.00 | 9.19 | 0.00 | 97 | 1013.5 |
| 20260510052004 | 19 | 91 | 3.2 | 6.4 | 0.00 | 9.22 | 0.00 | 97 | 1013.5 |
| 20260510051505 | 19 | 5 | 1.6 | 4.8 | 0.00 | 9.22 | 0.00 | 97 | 1013.5 |
| 20260510051005 | 19 | 40 | 1.6 | 6.4 | 0.00 | 9.22 | 0.00 | 97 | 1013.5 |
| 20260510050504 | 19 | 51 | 1.6 | 6.4 | 0.00 | 9.22 | 0.00 | 97 | 1013.7 |
| 20260510050012 | 19 | 26 | 0.0 | 3.2 | 0.00 | 9.22 | 0.00 | 97 | 1013.7 |
| 20260510045505 | 19 | 26 | 0.0 | 4.8 | 0.00 | 9.22 | 9.22 | 97 | 1013.8 |
| 20260510045008 | 19 | 333 | 0.0 | 6.4 | 0.00 | 9.22 | 9.22 | 97 | 1013.8 |
| 20260510044519 | 19 | 17 | 1.6 | 6.4 | 0.00 | 9.22 | 9.22 | 97 | 1013.8 |
| 20260510044008 | 19 | 17 | 1.6 | 6.4 | 0.00 | 9.25 | 9.22 | 97 | 1013.7 |
| 20260510043509 | 19 | 41 | 1.6 | 6.4 | 0.00 | 9.25 | 9.22 | 97 | 1013.8 |
| 20260510043021 | 19 | 40 | 1.6 | 6.4 | 0.00 | 9.25 | 9.22 | 97 | 1013.8 |
| 20260510042509 | 19 | 342 | 1.6 | 6.4 | 0.00 | 9.25 | 9.22 | 97 | 1013.9 |
| 20260510042011 | 19 | 15 | 1.6 | 6.4 | 0.00 | 9.27 | 9.22 | 97 | 1013.8 |
| 20260510041523 | 19 | 46 | 3.2 | 6.4 | 0.00 | 9.40 | 9.22 | 97 | 1013.5 |
| 20260510041008 | 19 | 5 | 1.6 | 6.4 | 0.00 | 9.55 | 9.22 | 97 | 1013.5 |
| 20260510040504 | 19 | 5 | 1.6 | 6.4 | 0.00 | 9.60 | 9.22 | 97 | 1013.3 |
| 20260510040010 | 19 | 69 | 1.6 | 6.4 | 0.00 | 9.60 | 9.22 | 97 | 1013.1 |
| 20260510035504 | 19 | 81 | 3.2 | 6.4 | 0.00 | 9.60 | 9.22 | 97 | 1013.2 |
| 20260510035006 | 19 | 81 | 1.6 | 4.8 | 0.00 | 9.63 | 9.22 | 97 | 1013.2 |
| 20260510034512 | 19 | 81 | 0.0 | 4.8 | 0.00 | 9.63 | 9.22 | 97 | 1013.2 |
| 20260510034007 | 19 | 81 | 1.6 | 4.8 | 0.00 | 9.63 | 9.22 | 97 | 1013.1 |
| 20260510033511 | 18 | 83 | 1.6 | 4.8 | 0.00 | 9.63 | 9.22 | 97 | 1013.1 |
| 20260510033020 | 18 | 153 | 0.0 | 4.8 | 0.00 | 9.63 | 9.22 | 97 | 1013.1 |
| 20260510032507 | 18 | 173 | 0.0 | 4.8 | 0.00 | 9.63 | 9.22 | 97 | 1013.0 |
| 20260510032013 | 18 | 157 | 0.0 | 3.2 | 0.00 | 9.63 | 9.22 | 97 | 1013.0 |
| 20260510031525 | 18 | 157 | 0.0 | 6.4 | 0.00 | 9.63 | 9.22 | 97 | 1013.1 |
| 20260510031008 | 18 | 157 | 0.0 | 6.4 | 0.00 | 9.63 | 9.22 | 97 | 1013.0 |
| 20260510030516 | 18 | 137 | 1.6 | 6.4 | 0.00 | 9.63 | 9.22 | 97 | 1012.8 |
| 20260510030035 | 18 | 114 | 1.6 | 4.8 | 0.00 | 9.63 | 9.22 | 97 | 1012.8 |
| 20260510025506 | 18 | 153 | 1.6 | 4.8 | 0.00 | 9.63 | 9.22 | 97 | 1013.0 |
| 20260510025004 | 18 | 107 | 1.6 | 3.2 | 0.00 | 9.63 | 9.22 | 97 | 1013.2 |
| 20260510024511 | 18 | 333 | 0.0 | 3.2 | 0.00 | 9.63 | 9.22 | 97 | 1013.4 |
| 20260510024003 | 18 | 333 | 1.6 | 4.8 | 0.00 | 9.63 | 9.22 | 97 | 1013.6 |
| 20260510023510 | 18 | 333 | 0.0 | 11.3 | 0.00 | 9.63 | 9.22 | 97 | 1013.6 |
| 20260510023016 | 18 | 306 | 1.6 | 11.3 | 0.00 | 9.63 | 9.22 | 97 | 1013.5 |
| 20260510022506 | 18 | 291 | 3.2 | 8.0 | 0.00 | 9.63 | 9.22 | 97 | 1013.4 |
| 20260510022010 | 18 | 169 | 1.6 | 8.0 | 0.00 | 9.63 | 9.22 | 97 | 1013.1 |
| 20260510021528 | 18 | 231 | 3.2 | 8.0 | 0.00 | 9.63 | 9.22 | 97 | 1012.9 |
| 20260510021009 | 18 | 218 | 3.2 | 8.0 | 0.03 | 9.63 | 9.22 | 97 | 1012.8 |
| 20260510020513 | 18 | 194 | 1.6 | 9.7 | 0.03 | 9.63 | 9.22 | 97 | 1012.7 |
| 20260510020030 | 18 | 127 | 3.2 | 9.7 | 0.05 | 9.63 | 9.22 | 97 | 1012.7 |
| 20260510015509 | 18 | 167 | 3.2 | 9.7 | 0.05 | 9.63 | 9.22 | 97 | 1012.9 |
| 20260510015010 | 18 | 178 | 1.6 | 6.4 | 0.05 | 9.63 | 9.22 | 97 | 1013.0 |
| 20260510014508 | 18 | 221 | 1.6 | 6.4 | 0.05 | 9.63 | 9.22 | 97 | 1013.1 |
| 20260510014006 | 18 | 198 | 1.6 | 6.4 | 0.05 | 9.63 | 9.22 | 97 | 1013.3 |
| 20260510013503 | 18 | 132 | 1.6 | 4.8 | 0.05 | 9.63 | 9.22 | 97 | 1013.1 |
| 20260510013014 | 18 | 137 | 0.0 | 6.4 | 0.05 | 9.63 | 9.22 | 97 | 1013.3 |
| 20260510012507 | 18 | 121 | 1.6 | 6.4 | 0.05 | 9.63 | 9.22 | 97 | 1013.3 |
| 20260510012010 | 18 | 117 | 1.6 | 4.8 | 0.05 | 9.63 | 9.22 | 97 | 1013.3 |
| 20260510011525 | 18 | 75 | 0.0 | 6.4 | 0.05 | 9.63 | 9.22 | 97 | 1013.5 |
| 20260510011012 | 18 | 75 | 1.6 | 6.4 | 0.03 | 9.60 | 9.19 | 97 | 1013.5 |
| 20260510010507 | 18 | 326 | 1.6 | 6.4 | 0.03 | 9.60 | 9.19 | 97 | 1013.7 |
| 20260510010022 | 18 | 319 | 0.0 | 4.8 | 0.00 | 9.58 | 9.17 | 97 | 1013.6 |
| 20260510005511 | 18 | 301 | 0.0 | 3.2 | 0.00 | 9.58 | 9.17 | 97 | 1013.7 |
| 20260510005013 | 18 | 301 | 0.0 | 3.2 | 0.00 | 9.58 | 9.17 | 97 | 1013.7 |
| 20260510004528 | 18 | 301 | 1.6 | 3.2 | 0.00 | 9.58 | 9.17 | 97 | 1013.4 |
| 20260510004015 | 18 | 301 | 1.6 | 3.2 | 0.00 | 9.58 | 9.17 | 97 | 1013.4 |
| 20260510003511 | 18 | 301 | 0.0 | 3.2 | 0.00 | 9.58 | 9.17 | 97 | 1013.3 |
| 20260510003021 | 18 | 304 | 0.0 | 3.2 | 0.00 | 9.58 | 9.17 | 97 | 1013.2 |
| 20260510002506 | 18 | 309 | 0.0 | 4.8 | 0.00 | 9.58 | 9.17 | 97 | 1013.0 |
| 20260510002010 | 18 | 328 | 1.6 | 4.8 | 0.03 | 9.58 | 9.17 | 97 | 1012.9 |
| 20260510001517 | 18 | 211 | 1.6 | 4.8 | 0.03 | 9.58 | 9.17 | 97 | 1012.7 |
| 20260510001007 | 18 | 290 | 0.0 | 3.2 | 0.05 | 9.58 | 9.17 | 97 | 1012.5 |
| 20260510000510 | 18 | 290 | 0.0 | 4.8 | 0.08 | 9.58 | 9.17 | 97 | 1012.5 |
| 20260510000023 | 18 | 336 | 1.6 | 4.8 | 0.10 | 9.58 | 9.17 | 97 | 1012.5 |
| 20260509235508 | 18 | 48 | 1.6 | 4.8 | 0.10 | 9.58 | 9.17 | 97 | 1012.4 |
| 20260509235012 | 18 | 88 | 0.0 | 4.8 | 0.13 | 9.58 | 9.17 | 97 | 1012.1 |
| 20260509234527 | 18 | 161 | 0.0 | 6.4 | 0.13 | 9.58 | 9.17 | 97 | 1011.9 |
| 20260509234009 | 18 | 207 | 1.6 | 6.4 | 0.15 | 9.58 | 9.17 | 97 | 1011.8 |
| 20260509233511 | 18 | 202 | 0.0 | 12.9 | 0.20 | 9.58 | 9.17 | 97 | 1011.7 |
| 20260509233028 | 18 | 195 | 1.6 | 12.9 | 0.25 | 9.58 | 9.17 | 97 | 1011.4 |
| 20260509232515 | 18 | 176 | 4.8 | 12.9 | 0.28 | 9.58 | 9.17 | 97 | 1011.0 |
| 20260509232010 | 18 | 132 | 4.8 | 12.9 | 0.28 | 9.58 | 9.14 | 97 | 1011.1 |
| 20260509231512 | 18 | 155 | 3.2 | 9.7 | 0.33 | 9.60 | 9.14 | 97 | 1011.2 |
| 20260509231007 | 18 | 123 | 1.6 | 8.0 | 0.33 | 9.60 | 9.12 | 97 | 1011.6 |
| 20260509230508 | 18 | 184 | 1.6 | 8.0 | 0.33 | 9.60 | 9.09 | 97 | 1011.6 |
| 20260509230020 | 18 | 190 | 1.6 | 9.7 | 0.33 | 9.63 | 9.07 | 97 | 1011.7 |
| 20260509225508 | 18 | 197 | 3.2 | 9.7 | 0.36 | 9.73 | 9.07 | 97 | 1012.1 |
| 20260509225011 | 18 | 235 | 1.6 | 9.7 | 0.36 | 9.83 | 9.04 | 97 | 1012.2 |
| 20260509224531 | 18 | 232 | 4.8 | 8.0 | 0.38 | 9.86 | 9.04 | 97 | 1012.2 |
| 20260509224008 | 18 | 203 | 3.2 | 8.0 | 0.38 | 9.86 | 9.02 | 97 | 1012.1 |
| 20260509223512 | 18 | 154 | 0.0 | 6.4 | 0.41 | 9.83 | 8.97 | 97 | 1011.8 |
| 20260509223027 | 18 | 78 | 3.2 | 6.4 | 0.41 | 9.78 | 8.92 | 97 | 1011.9 |
| 20260509222508 | 18 | 136 | 1.6 | 4.8 | 0.41 | 9.75 | 8.89 | 97 | 1012.4 |
| 20260509222013 | 18 | 207 | 0.0 | 6.4 | 0.41 | 9.73 | 8.86 | 97 | 1012.5 |
| 20260509221530 | 18 | 240 | 1.6 | 6.4 | 0.41 | 9.68 | 8.81 | 97 | 1012.7 |
| 20260509221018 | 18 | 218 | 1.6 | 6.4 | 0.41 | 9.65 | 8.79 | 97 | 1012.7 |
| 20260509220517 | 18 | 218 | 1.6 | 4.8 | 0.43 | 9.63 | 8.76 | 97 | 1012.7 |
| 20260509220017 | 18 | 17 | 1.6 | 3.2 | 0.41 | 9.60 | 8.74 | 97 | 1012.5 |
| 20260509215507 | 18 | 17 | 0.0 | 4.8 | 0.43 | 9.58 | 8.71 | 97 | 1012.3 |
| 20260509215012 | 18 | 46 | 0.0 | 4.8 | 0.43 | 9.58 | 8.69 | 97 | 1012.1 |
| 20260509214521 | 18 | 46 | 0.0 | 6.4 | 0.48 | 9.55 | 8.66 | 97 | 1012.2 |
| 20260509214009 | 18 | 46 | 1.6 | 6.4 | 0.48 | 9.55 | 8.64 | 97 | 1012.3 |
| 20260509213508 | 18 | 74 | 0.0 | 4.8 | 0.43 | 9.53 | 8.56 | 97 | 1012.3 |
| 20260509213026 | 18 | 74 | 1.6 | 4.8 | 0.38 | 9.53 | 8.51 | 97 | 1012.3 |
| 20260509212508 | 18 | 199 | 1.6 | 4.8 | 0.38 | 9.55 | 8.48 | 97 | 1012.2 |
| 20260509212011 | 18 | 199 | 1.6 | 11.3 | 0.36 | 9.58 | 8.46 | 96 | 1012.2 |
| 20260509211507 | 18 | 242 | 0.0 | 11.3 | 0.30 | 9.55 | 8.41 | 97 | 1012.3 |
| 20260509211006 | 18 | 236 | 3.2 | 8.0 | 0.28 | 9.58 | 8.38 | 96 | 1012.4 |
| 20260509210511 | 18 | 219 | 3.2 | 8.0 | 0.25 | 9.58 | 8.33 | 97 | 1012.2 |
| 20260509210014 | 18 | 200 | 1.6 | 6.4 | 0.25 | 9.63 | 8.33 | 97 | 1012.3 |
| 20260509205508 | 18 | 76 | 1.6 | 6.4 | 0.23 | 9.60 | 8.28 | 96 | 1012.5 |
| 20260509205007 | 18 | 195 | 0.0 | 4.8 | 0.25 | 9.58 | 8.26 | 97 | 1012.5 |
| 20260509204519 | 18 | 195 | 0.0 | 4.8 | 0.25 | 9.50 | 8.18 | 97 | 1012.9 |
| 20260509204009 | 18 | 195 | 0.0 | 4.8 | 0.25 | 9.50 | 8.15 | 96 | 1012.9 |
| 20260509203508 | 18 | 195 | 1.6 | 6.4 | 0.30 | 9.50 | 8.13 | 97 | 1012.6 |
| 20260509203029 | 18 | 223 | 3.2 | 6.4 | 0.33 | 9.53 | 8.13 | 97 | 1012.7 |
| 20260509202510 | 18 | 255 | 0.0 | 3.2 | 0.43 | 9.50 | 8.10 | 97 | 1012.6 |
| 20260509202018 | 18 | 63 | 1.6 | 6.4 | 0.51 | 9.53 | 8.10 | 97 | 1012.5 |
| 20260509201525 | 18 | 63 | 0.0 | 9.7 | 0.53 | 9.53 | 8.10 | 97 | 1012.5 |
| 20260509201011 | 18 | 131 | 1.6 | 9.7 | 0.58 | 9.55 | 8.10 | 97 | 1012.0 |
| 20260509200511 | 18 | 118 | 0.0 | 11.3 | 0.61 | 9.55 | 8.08 | 97 | 1011.8 |
| 20260509200012 | 18 | 77 | 4.8 | 11.3 | 0.64 | 9.58 | 8.08 | 97 | 1011.9 |
| 20260509195504 | 18 | 81 | 1.6 | 9.7 | 0.64 | 9.58 | 8.05 | 97 | 1012.0 |
| 20260509195008 | 18 | 88 | 4.8 | 9.7 | 0.61 | 9.55 | 8.00 | 97 | 1012.2 |
| 20260509194518 | 18 | 137 | 1.6 | 8.0 | 0.56 | 9.47 | 7.92 | 97 | 1012.6 |
| 20260509194008 | 18 | 180 | 3.2 | 9.7 | 0.56 | 9.45 | 7.90 | 96 | 1012.7 |
| 20260509193511 | 18 | 171 | 0.0 | 9.7 | 0.48 | 9.42 | 7.82 | 96 | 1013.1 |
| 20260509193025 | 18 | 99 | 1.6 | 9.7 | 0.48 | 9.45 | 7.80 | 96 | 1013.0 |
| 20260509192507 | 18 | 185 | 3.2 | 8.0 | 0.36 | 9.37 | 7.67 | 96 | 1012.7 |
| 20260509192012 | 18 | 215 | 1.6 | 11.3 | 0.28 | 9.42 | 7.59 | 96 | 1013.2 |
| 20260509191527 | 19 | 222 | 4.8 | 16.1 | 0.25 | 9.42 | 7.57 | 96 | 1013.1 |
| 20260509191011 | 19 | 217 | 6.4 | 16.1 | 0.20 | 9.40 | 7.52 | 97 | 1012.5 |
| 20260509190509 | 19 | 227 | 3.2 | 8.0 | 0.15 | 9.35 | 7.47 | 97 | 1013.9 |
| 20260509190028 | 19 | 270 | 3.2 | 11.3 | 0.15 | 9.32 | 7.44 | 97 | 1013.7 |
| 20260509185509 | 19 | 255 | 1.6 | 11.3 | 0.13 | 9.32 | 7.42 | 97 | 1012.9 |
| 20260509185018 | 19 | 126 | 4.8 | 8.0 | 0.10 | 9.37 | 7.39 | 97 | 1013.1 |
| 20260509184509 | 19 | 95 | 3.2 | 6.4 | 0.08 | 9.47 | 7.37 | 97 | 1013.3 |
| 20260509184002 | 19 | 175 | 1.6 | 6.4 | 0.05 | 9.65 | 7.34 | 97 | 1013.5 |
| 20260509183505 | 19 | 151 | 1.6 | 8.0 | 0.05 | 10.24 | 7.34 | 97 | 1013.2 |
| 20260509183003 | 19 | 190 | 1.6 | 8.0 | 0.03 | 11.33 | 7.32 | 97 | 1013.4 |
| 20260509182503 | 19 | 225 | 3.2 | 8.0 | 0.03 | 12.12 | 7.32 | 97 | 1013.6 |
| 20260509182005 | 19 | 211 | 3.2 | 9.7 | 0.03 | 12.40 | 7.32 | 97 | 1013.5 |
| 20260509181505 | 19 | 252 | 3.2 | 9.7 | 0.03 | 12.50 | 7.32 | 97 | 1013.3 |
| 20260509181004 | 19 | 76 | 3.2 | 12.9 | 0.03 | 12.83 | 7.32 | 97 | 1013.1 |
| 20260509180504 | 19 | 113 | 1.6 | 12.9 | 0.03 | 13.39 | 7.32 | 97 | 1013.0 |
| 20260509180007 | 19 | 83 | 3.2 | 12.9 | 0.00 | 13.44 | 7.29 | 97 | 1013.0 |
| 20260509175504 | 19 | 92 | 3.2 | 8.0 | 0.00 | 13.49 | 7.29 | 97 | 1013.1 |
| 20260509175005 | 19 | 117 | 1.6 | 9.7 | 0.03 | 13.54 | 7.29 | 97 | 1012.9 |
| 20260509174502 | 19 | 132 | 4.8 | 9.7 | 0.03 | 13.64 | 7.29 | 97 | 1012.9 |
| 20260509174001 | 19 | 130 | 1.6 | 8.0 | 0.03 | 13.72 | 7.29 | 97 | 1013.0 |
| 20260509173502 | 19 | 135 | 3.2 | 8.0 | 0.03 | 14.35 | 7.29 | 97 | 1013.1 |
| 20260509173003 | 19 | 173 | 3.2 | 9.7 | 0.03 | 15.52 | 7.29 | 97 | 1013.1 |
| 20260509172505 | 19 | 111 | 1.6 | 9.7 | 0.03 | 16.79 | 7.29 | 97 | 1013.1 |
| 20260509172003 | 19 | 126 | 3.2 | 11.3 | 0.03 | 18.03 | 7.29 | 97 | 1013.0 |
| 20260509171504 | 19 | 115 | 3.2 | 11.3 | 0.03 | 18.85 | 7.29 | 97 | 1013.0 |
| 20260509171003 | 19 | 152 | 1.6 | 14.5 | 0.03 | 19.61 | 7.29 | 97 | 1013.0 |
| 20260509170505 | 19 | 117 | 3.2 | 14.5 | 0.03 | 20.32 | 7.29 | 97 | 1013.1 |
| 20260509170006 | 18 | 142 | 4.8 | 14.5 | 0.03 | 20.83 | 7.29 | 97 | 1013.1 |
| 20260509165504 | 18 | 155 | 1.6 | 6.4 | 0.03 | 20.88 | 7.29 | 97 | 1013.3 |
| 20260509165003 | 18 | 124 | 1.6 | 6.4 | 0.00 | 20.88 | 7.26 | 97 | 1013.2 |
| 20260509164509 | 18 | 228 | 3.2 | 8.0 | 0.00 | 20.88 | 7.26 | 97 | 1013.4 |
| 20260509164006 | 18 | 220 | 3.2 | 8.0 | 0.00 | 20.88 | 7.26 | 97 | 1013.4 |
| 20260509163506 | 18 | 223 | 0.0 | 4.8 | 0.00 | 20.88 | 7.26 | 97 | 1013.4 |
| 20260509163007 | 18 | 100 | 1.6 | 4.8 | 0.08 | 20.88 | 7.26 | 97 | 1013.3 |
| 20260509162503 | 18 | 127 | 0.0 | 6.4 | 0.08 | 20.88 | 7.26 | 97 | 1013.2 |
| 20260509162007 | 18 | 193 | 0.0 | 8.0 | 0.10 | 20.88 | 7.26 | 96 | 1013.3 |
| 20260509161504 | 18 | 109 | 3.2 | 8.0 | 0.10 | 20.88 | 7.26 | 96 | 1013.2 |
| 20260509161003 | 18 | 117 | 1.6 | 4.8 | 0.10 | 20.88 | 7.26 | 97 | 1013.1 |
| 20260509160503 | 18 | 128 | 0.0 | 4.8 | 0.10 | 20.88 | 7.26 | 97 | 1013.2 |
| 20260509160004 | 18 | 115 | 0.0 | 6.4 | 0.10 | 20.88 | 7.26 | 97 | 1013.1 |
| 20260509155502 | 18 | 209 | 1.6 | 6.4 | 0.13 | 20.88 | 7.26 | 97 | 1013.4 |
| 20260509155004 | 18 | 178 | 0.0 | 4.8 | 0.13 | 20.88 | 7.26 | 97 | 1013.4 |
| 20260509154513 | 18 | 170 | 1.6 | 6.4 | 0.13 | 20.88 | 7.26 | 96 | 1013.6 |
| 20260509154007 | 18 | 150 | 1.6 | 6.4 | 0.13 | 20.88 | 7.26 | 96 | 1013.5 |
| 20260509153505 | 18 | 165 | 1.6 | 6.4 | 0.13 | 20.88 | 7.26 | 96 | 1013.5 |
| 20260509153014 | 18 | 123 | 1.6 | 6.4 | 0.08 | 20.78 | 7.19 | 96 | 1013.4 |
| 20260509152507 | 18 | 67 | 3.2 | 11.3 | 0.08 | 20.78 | 7.19 | 96 | 1013.2 |
| 20260509152007 | 18 | 125 | 3.2 | 11.3 | 0.05 | 20.78 | 7.16 | 96 | 1013.3 |
| 20260509151504 | 18 | 61 | 3.2 | 11.3 | 0.08 | 20.78 | 7.16 | 96 | 1013.3 |
| 20260509151003 | 18 | 113 | 3.2 | 9.7 | 0.08 | 20.78 | 7.16 | 96 | 1013.1 |
| 20260509150503 | 18 | 247 | 0.0 | 9.7 | 0.08 | 20.78 | 7.16 | 96 | 1013.5 |
| 20260509150004 | 18 | 186 | 1.6 | 9.7 | 0.08 | 20.78 | 7.16 | 96 | 1013.5 |
| 20260509145505 | 18 | 132 | 1.6 | 4.8 | 0.10 | 20.75 | 7.14 | 96 | 1013.3 |
| 20260509145004 | 18 | 128 | 1.6 | 4.8 | 0.23 | 20.75 | 7.14 | 97 | 1013.0 |
| 20260509144505 | 18 | 106 | 0.0 | 4.8 | 0.33 | 20.75 | 7.14 | 96 | 1012.8 |
| 20260509144004 | 18 | 125 | 0.0 | 6.4 | 0.69 | 20.75 | 7.14 | 96 | 1012.7 |
| 20260509143504 | 18 | 108 | 1.6 | 11.3 | 0.84 | 20.75 | 7.14 | 96 | 1012.5 |
| 20260509143012 | 18 | 121 | 3.2 | 11.3 | 0.94 | 20.73 | 7.11 | 96 | 1012.6 |
| 20260509142511 | 18 | 188 | 1.6 | 11.3 | 1.19 | 20.73 | 7.11 | 96 | 1012.8 |
| 20260509142004 | 18 | 150 | 4.8 | 12.9 | 1.42 | 20.73 | 7.11 | 96 | 1012.6 |
| 20260509141516 | 18 | 74 | 4.8 | 12.9 | 1.47 | 20.68 | 7.09 | 96 | 1012.5 |
| 20260509141005 | 18 | 182 | 3.2 | 9.7 | 1.55 | 20.68 | 7.09 | 96 | 1013.0 |
| 20260509140509 | 18 | 246 | 1.6 | 8.0 | 1.57 | 20.68 | 7.09 | 96 | 1012.8 |
| 20260509140006 | 18 | 95 | 1.6 | 8.0 | 1.60 | 20.68 | 7.09 | 96 | 1012.4 |
| 20260509135505 | 18 | 104 | 1.6 | 8.0 | 1.70 | 20.65 | 7.04 | 96 | 1012.4 |
| 20260509135004 | 18 | 178 | 1.6 | 6.4 | 1.80 | 20.52 | 6.91 | 96 | 1013.0 |
| 20260509134505 | 18 | 144 | 3.2 | 6.4 | 2.08 | 20.42 | 6.81 | 96 | 1013.0 |
| 20260509134003 | 18 | 72 | 1.6 | 3.2 | 2.08 | 20.07 | 6.45 | 96 | 1012.9 |
| 20260509133505 | 18 | 277 | 0.0 | 3.2 | 2.13 | 19.91 | 6.30 | 96 | 1013.0 |
| 20260509133012 | 18 | 148 | 0.0 | 8.0 | 2.11 | 19.79 | 6.17 | 96 | 1013.1 |
| 20260509132508 | 18 | 142 | 1.6 | 9.7 | 2.06 | 19.53 | 5.92 | 96 | 1013.2 |
| 20260509132007 | 18 | 5 | 1.6 | 12.9 | 1.96 | 19.30 | 5.69 | 96 | 1013.1 |
| 20260509131512 | 17 | 79 | 1.6 | 16.1 | 2.21 | 19.20 | 5.59 | 96 | 1012.8 |
| 20260509131006 | 17 | 99 | 8.0 | 16.1 | 2.77 | 19.15 | 5.54 | 96 | 1012.6 |
| 20260509130507 | 17 | 96 | 4.8 | 16.1 | 2.97 | 19.13 | 5.51 | 96 | 1012.8 |
| 20260509130030 | 17 | 40 | 6.4 | 14.5 | 3.17 | 19.10 | 5.49 | 96 | 1012.7 |
| 20260509125505 | 18 | 93 | 3.2 | 12.9 | 3.28 | 18.95 | 5.31 | 96 | 1012.8 |
| 20260509125007 | 18 | 77 | 3.2 | 6.4 | 3.35 | 18.72 | 5.11 | 96 | 1012.6 |
| 20260509124504 | 17 | 141 | 0.0 | 4.8 | 2.95 | 18.34 | 4.72 | 96 | 1013.0 |
| 20260509124004 | 18 | 65 | 0.0 | 4.8 | 2.62 | 17.98 | 4.37 | 96 | 1013.1 |
| 20260509123504 | 18 | 35 | 0.0 | 6.4 | 2.41 | 17.78 | 4.17 | 96 | 1013.2 |
| 20260509123007 | 18 | 90 | 0.0 | 6.4 | 2.31 | 17.68 | 4.06 | 96 | 1013.0 |
| 20260509122503 | 18 | 76 | 3.2 | 11.3 | 2.11 | 17.48 | 3.86 | 96 | 1012.7 |
| 20260509122003 | 18 | 39 | 1.6 | 17.7 | 1.98 | 17.35 | 3.73 | 96 | 1013.2 |
| 20260509121510 | 18 | 32 | 8.0 | 17.7 | 1.63 | 16.99 | 3.38 | 96 | 1013.1 |
| 20260509121003 | 18 | 90 | 1.6 | 25.7 | 1.02 | 16.38 | 2.77 | 96 | 1013.5 |
| 20260509120507 | 18 | 325 | 6.4 | 25.7 | 0.76 | 16.13 | 2.51 | 96 | 1013.6 |
| 20260509120025 | 18 | 75 | 9.7 | 24.1 | 0.56 | 15.93 | 2.31 | 95 | 1013.7 |
| 20260509115508 | 18 | 258 | 4.8 | 27.4 | 0.30 | 15.67 | 2.06 | 95 | 1013.7 |
| 20260509115007 | 19 | 122 | 9.7 | 27.4 | 0.00 | 15.37 | 1.75 | 95 | 1013.1 |
| 20260509114522 | 20 | 352 | 8.0 | 25.7 | 0.00 | 15.37 | 1.75 | 96 | 1012.8 |
| 20260509114008 | 20 | 5 | 3.2 | 6.4 | 0.00 | 15.37 | 1.75 | 96 | 1012.4 |
| 20260509113511 | 20 | 320 | 1.6 | 4.8 | 0.00 | 15.37 | 1.75 | 96 | 1011.4 |
| 20260509113007 | 20 | 320 | 1.6 | 4.8 | 0.00 | 15.37 | 1.75 | 96 | 1011.2 |
| 20260509112504 | 20 | 320 | 1.6 | 4.8 | 0.00 | 15.37 | 1.75 | 96 | 1011.0 |
| 20260509112004 | 20 | 198 | 0.0 | 6.4 | 0.00 | 15.37 | 1.75 | 96 | 1010.8 |
| 20260509111506 | 20 | 198 | 1.6 | 6.4 | 0.00 | 15.39 | 1.75 | 97 | 1010.5 |
| 20260509111004 | 20 | 182 | 1.6 | 8.0 | 0.00 | 15.39 | 1.75 | 97 | 1010.4 |
| 20260509110504 | 20 | 217 | 3.2 | 8.0 | 0.00 | 15.39 | 1.75 | 97 | 1010.1 |
| 20260509110018 | 20 | 185 | 0.0 | 8.0 | 0.00 | 15.39 | 1.75 | 97 | 1009.8 |
| 20260509105508 | 20 | 192 | 3.2 | 8.0 | 0.00 | 15.39 | 1.75 | 97 | 1009.9 |
| 20260509105006 | 20 | 198 | 0.0 | 4.8 | 0.00 | 15.39 | 1.75 | 96 | 1009.9 |